Location: Gleizolles
(44.4833°N, 6.7667°E)
Time: 17:12:53
(UTC+00:00)

Tiros 1 - Pass Details

Date: 30 June 2024
Orbit: 624 x 656 km, 48.4° (Epoch: 13 July)

Event Time Altitude Azimuth Distance (km) Brightness Sun altitude
Rises 19:28:11 0° 209° (SSW) 2,895 10.4 -1.8°
Reaches altitude 10° 19:30:45 10° 197° (SSW) 1,989 9.5 -2.2°
Maximum altitude 19:34:35 27° 140° (SE) 1,209 8.0 -2.7°
Drops below altitude 10° 19:38:25 10° 83° (E) 1,994 9.3 -3.3°
Sets 19:41:00 0° 71° (ENE) 2,905 10.2 -3.6°
